GSAT0216 (PRN E25)

Last updated on Jan. 21, 2021, 6:17 a.m. UTC

1 43056U 17079B   21019.86809192 -.00000012  00000-0  00000-0 0  9992
2 43056  56.1023 275.8549 0004044 303.1674  56.8596  1.70473922 19344
UTC
Height (km)
Latitude
Longitude
Inclination
Orbital Period
UTC large
Height (km)
Speed (km/s)
/
Latitude / Longitude
Inclination (degrees)
Orbital Period (minutes)
Azimuth
Elevation
Range (km)
Doppler Factor
iOS Compass Heading
iOS Angle

Next 30 passes for location: Hong Kong

Rise time Rise Azimuth (degrees) Set time Set Azimuth (degrees) Duration Max altitude (degrees)

No matching passes for this satellites